Location: Amos
(48.5670°N, 78.1170°W)
Time: 19:44:17
(UTC-05:00)

ISS - Visible Passes

Search period start: 28 November 2021 00:00
Search period end: 08 December 2021 00:00
Orbit: 417 x 423 km, 51.6° (Epoch: 28 November)

Date Brightness Start Highest point End Pass type
(mag) Time Alt. Az. Time Alt. Az. Time Alt. Az.
28 Nov -3.3 18:05:13 10° WNW 18:08:32 48° N 18:09:09 41° NE visible
29 Nov -3.3 17:17:56 10° W 17:21:16 50° N 17:23:51 15° ENE visible
29 Nov -1.9 18:55:01 10° WNW 18:56:50 28° WNW 18:56:50 28° WNW visible
30 Nov -3.5 18:07:47 10° WNW 18:11:09 54° N 18:11:33 49° NE visible
01 Dec -3.3 17:20:32 10° WNW 17:23:52 49° N 17:26:19 16° ENE visible
01 Dec -1.8 18:57:27 10° WNW 18:59:19 30° WNW 18:59:19 30° WNW visible
02 Dec -3.9 18:10:14 10° WNW 18:13:38 80° NNE 18:14:09 61° E visible
03 Dec -3.7 17:22:59 10° WNW 17:26:23 64° NNE 17:29:04 15° E visible
03 Dec -1.7 18:59:57 10° WNW 19:02:03 28° WSW 19:02:03 28° WSW visible
04 Dec -3.1 18:12:37 10° WNW 18:15:57 53° SSW 18:17:06 34° SSE visible
05 Dec -3.6 17:25:19 10° WNW 17:28:43 76° SSW 17:32:06 10° ESE visible
05 Dec -1.1 19:02:53 10° W 19:05:06 16° SW 19:05:20 16° SW visible
06 Dec -1.5 18:15:11 10° W 18:18:00 24° SW 18:20:48 10° SSE visible
07 Dec -2.1 17:27:41 10° WNW 17:30:50 36° SW 17:33:58 10° SE visible
